Theta_e
314 315 319 313 310 308 313 312 310 312 317 331 334 336 336 335 335 329 334 336 340 339 332 335 332 331 327 323 331 330 336 335 336 335 333 333 330 330 330 332 332 331 331 331 330 330 329 328 327
313 316 315 305 308 310 310 309 311 321 327 326 331 334 334 336 333 334 333 335 342 339 336 335 332 331 329 328 332 328 333 336 333 332 332 330 330 331 333 332 331 331 331 331 331 332 330 327 326
314 313 308 306 305 310 310 310 311 323 325 330 333 330 333 333 330 331 331 333 340 338 334 330 330 330 327 332 332 330 329 327 330 331 331 331 331 332 332 331 330 330 331 331 331 331 329 322 320
316 309 305 310 312 310 311 311 310 324 324 324 326 328 330 331 330 331 329 333 339 339 334 331 330 328 326 326 329 332 333 333 331 332 330 330 331 332 331 330 330 329 327 326 326 327 324 321 316
312 304 307 310 311 310 309 310 318 327 327 325 326 329 330 333 332 333 331 334 334 338 336 335 330 328 326 324 326 327 332 333 331 331 330 330 330 331 331 330 328 324 322 324 327 324 323 317 314
308 305 311 311 311 312 310 315 325 328 327 325 325 329 334 331 331 332 333 332 333 334 335 333 330 328 327 326 324 320 328 334 323 329 330 330 329 330 330 327 321 316 318 319 323 323 319 314 310
309 308 311 312 312 311 315 320 327 328 329 328 325 328 328 328 329 330 332 332 334 331 332 334 331 329 328 327 325 318 326 331 329 329 329 328 328 328 327 321 315 317 322 321 322 320 316 314 312
306 307 312 310 312 311 315 322 326 327 325 327 323 327 328 328 328 330 330 331 333 333 333 329 331 331 328 325 322 318 324 324 326 328 328 327 323 324 318 313 314 319 321 321 321 319 318 315 314
305 308 310 312 310 312 319 323 324 324 327 329 329 332 328 327 330 330 330 331 332 332 332 331 332 330 327 322 317 324 326 327 326 328 327 321 318 314 312 312 313 313 315 317 319 319 319 316 315
308 308 310 309 309 312 317 321 325 328 326 329 329 329 328 328 330 330 330 331 329 330 331 331 330 327 325 321 319 320 318 322 327 327 323 317 313 314 312 312 312 312 312 312 313 316 317 317 315
307 311 310 311 309 309 314 326 326 325 324 323 327 328 329 329 328 328 329 329 327 327 329 330 329 327 326 325 318 321 325 325 324 323 320 315 313 314 313 311 311 312 312 312 313 315 315 315 314
312 309 310 311 312 314 324 324 326 320 324 321 324 326 327 328 328 327 326 327 326 325 325 323 325 324 322 323 323 318 319 319 322 322 318 313 313 314 313 311 311 311 312 312 311 311 311 313 314
311 312 314 312 312 314 325 328 329 328 326 325 326 327 326 327 326 325 324 326 326 325 324 323 320 319 319 320 323 323 323 322 321 321 317 314 313 314 314 313 312 312 313 314 312 311 310 311 313
314 314 313 313 314 329 328 331 331 328 326 325 328 328 325 325 324 323 322 322 325 325 325 324 322 321 319 319 320 320 319 319 316 322 318 315 314 315 314 313 313 313 315 315 314 313 311 310 311
315 315 313 313 314 326 327 326 330 328 326 327 328 327 327 327 324 323 322 321 322 324 324 324 323 321 320 320 320 321 321 321 321 323 319 316 315 315 315 314 314 314 316 316 315 312 309 308 309
314 313 314 313 318 320 321 321 319 327 328 328 328 327 325 325 322 322 321 321 321 321 322 323 322 322 321 320 320 321 322 317 321 320 320 317 316 315 315 315 314 314 317 317 317 312 310 308 307
311 312 313 314 314 319 319 321 322 327 330 329 326 326 324 323 320 321 320 320 320 321 321 321 322 321 323 321 324 323 322 322 320 322 320 317 316 316 316 316 315 315 315 317 317 313 311 309 308
313 313 312 314 314 319 320 320 319 329 330 330 325 323 323 322 321 320 320 319 319 320 321 321 321 321 322 321 322 322 320 321 319 320 318 317 317 316 317 317 316 316 314 315 317 315 313 312 310
311 314 314 311 312 315 313 314 315 327 330 329 326 323 322 322 319 319 319 319 319 319 319 320 320 320 319 319 320 322 321 321 317 317 320 318 317 317 318 319 320 317 316 317 318 317 315 314 312
313 313 313 312 313 313 313 317 317 322 329 330 327 324 321 321 320 320 318 318 318 318 318 318 319 319 320 319 319 320 322 321 321 321 322 321 321 322 322 322 322 323 321 321 321 319 317 314 312
313 313 313 314 313 315 320 319 322 321 323 328 326 323 321 320 320 320 318 316 317 317 317 318 318 319 320 319 320 319 319 320 319 316 316 318 321 320 319 320 322 322 323 322 322 320 318 317 312
314 313 314 315 316 318 318 320 316 317 322 325 326 326 322 318 321 319 318 316 315 315 317 317 317 318 318 318 318 318 318 319 318 316 315 314 315 316 316 316 319 321 321 322 322 321 319 317 314
315 314 314 316 315 315 316 316 315 323 322 322 321 324 325 320 320 320 318 317 315 314 315 317 317 317 317 317 317 317 317 317 317 316 315 314 314 314 314 314 316 319 322 322 323 323 320 316 314
315 316 316 316 315 318 317 315 315 317 321 320 320 320 322 322 320 321 319 317 314 314 315 315 316 316 317 317 316 316 315 315 316 316 316 314 313 313 313 313 314 317 319 323 324 324 323 320 316
315 315 318 318 319 321 316 315 317 315 314 318 318 318 319 321 321 321 319 317 315 314 314 315 315 315 316 316 316 316 316 316 315 315 315 315 315 314 313 315 315 316 318 319 322 323 323 321 319
315 315 317 322 321 318 318 321 320 317 315 315 317 317 318 319 321 322 320 318 316 314 314 314 314 314 315 315 315 315 315 314 315 314 314 314 314 315 315 316 316 316 317 319 320 322 322 321 320
317 316 315 316 317 319 317 317 316 318 317 316 316 315 317 317 321 321 321 319 317 316 314 314 314 314 314 315 315 314 314 313 313 313 314 314 315 316 316 316 316 316 318 321 321 322 321 318 319
315 314 317 315 321 323 319 321 318 318 318 316 314 314 317 317 319 321 321 320 319 317 316 315 315 315 314 314 314 314 314 314 314 314 314 314 314 315 316 315 315 319 321 321 322 322 320 318 318
315 315 316 316 316 319 319 317 316 316 315 316 315 314 313 317 318 320 320 321 321 320 316 315 314 314 314 314 314 314 315 315 315 315 315 315 315 314 315 317 319 321 321 322 322 322 320 319 316
314 315 315 317 318 318 315 318 316 315 315 315 315 316 314 315 317 318 320 321 321 321 319 317 315 313 314 313 313 314 315 316 316 316 315 317 317 318 317 319 320 321 321 322 322 321 319 317 315
Wind_Speed
3 4 2 4 4 5 3 5 2 6 3 5 5 2 4 4 1 3 3 9 11 28 33 29 28 27 28 31 27 26 36 40 35 33 33 32 32 33 34 35 35 35 33 30 32 32 30 30 28
4 5 4 2 5 3 5 4 5 4 4 7 4 2 4 4 4 2 3 8 18 29 32 30 29 28 26 24 24 29 36 37 35 33 31 31 32 33 33 35 36 35 32 30 30 29 27 28 28
4 3 4 4 4 3 5 5 5 3 3 2 2 1 1 3 1 3 2 8 17 32 33 28 31 30 29 29 28 31 33 35 31 31 31 32 31 32 35 36 37 34 31 28 26 24 25 28 27
4 4 4 4 4 6 6 5 5 5 3 4 2 4 2 2 3 2 3 7 19 23 30 30 30 33 33 30 26 28 31 33 33 32 33 30 30 32 36 36 34 31 28 26 25 26 29 27 26
4 3 4 1 5 5 6 5 5 4 3 1 2 3 2 2 5 4 4 6 18 23 30 31 31 32 30 30 29 26 28 32 35 32 33 30 29 31 33 34 31 29 26 26 29 31 31 28 28
4 3 3 3 4 5 6 5 5 2 3 3 1 1 1 2 5 7 5 5 17 25 31 31 26 26 27 29 27 29 25 30 35 33 31 30 29 31 32 33 32 28 27 30 32 33 30 28 29
6 4 3 2 4 6 4 5 2 2 3 3 2 2 2 2 4 6 6 7 10 20 23 25 26 25 26 25 32 35 31 33 37 35 30 31 31 34 34 34 32 29 29 32 33 32 30 28 27
5 4 3 4 3 6 2 3 1 3 4 3 3 3 2 2 2 3 1 6 7 14 28 29 30 33 34 34 38 37 32 33 39 35 32 33 33 33 34 35 34 32 33 34 31 29 27 27 26
3 4 2 4 4 5 3 4 2 1 2 2 1 2 0 2 2 5 6 9 8 13 14 26 34 37 40 41 45 38 33 32 36 34 33 34 33 36 35 35 34 33 31 31 30 27 25 25 23
4 4 8 7 5 6 4 6 5 1 4 4 2 2 5 4 2 6 4 10 12 12 13 27 32 34 41 42 45 40 37 30 36 36 35 35 36 35 33 34 32 31 30 29 29 29 27 25 23
5 5 5 6 11 9 6 4 4 3 5 5 4 8 6 6 6 5 3 6 10 17 19 21 27 35 36 33 42 39 34 39 36 37 37 35 35 34 33 35 35 31 29 29 27 26 25 23 21
3 7 4 7 2 1 4 5 3 7 3 3 4 6 5 3 4 6 8 7 17 19 21 21 25 30 35 34 33 37 34 32 32 38 37 35 35 34 32 31 32 29 25 25 24 23 20 19 19
4 4 4 7 10 6 7 5 6 6 2 4 7 6 6 5 5 3 8 12 18 21 22 24 30 31 40 39 35 40 34 37 36 35 35 36 36 34 32 29 28 26 23 22 22 18 17 17 17
5 4 7 5 5 4 6 2 2 5 6 6 6 7 6 7 6 7 5 11 16 19 25 27 30 35 34 33 34 34 33 33 37 31 38 37 36 33 31 29 27 24 21 20 18 15 14 17 17
2 5 6 4 2 3 5 5 9 5 7 7 6 8 7 6 9 8 10 11 14 16 24 29 32 33 34 29 29 29 31 35 37 37 40 38 35 32 30 28 26 23 21 20 17 16 15 16 17
1 3 3 3 4 1 7 11 2 9 10 8 8 8 8 6 6 8 11 11 12 13 19 27 28 28 30 32 28 27 30 39 35 35 37 35 32 30 29 27 26 23 20 19 16 17 18 17 17
5 4 5 5 3 3 3 9 2 5 7 8 8 9 9 9 8 8 10 12 11 14 20 21 27 28 25 28 27 30 32 37 41 37 36 32 30 28 27 25 24 22 20 18 17 19 18 18 15
5 4 5 5 2 3 6 12 4 9 8 8 7 7 8 11 11 11 11 12 13 16 22 25 25 31 31 20 29 31 31 32 32 25 27 28 28 25 24 23 21 19 20 19 19 19 18 16 15
5 2 3 5 3 3 8 10 15 8 8 9 8 9 9 10 7 14 12 12 13 15 17 24 21 28 35 27 25 31 30 29 34 28 23 23 25 24 22 21 18 21 22 20 18 20 19 17 18
3 3 6 9 3 4 7 11 7 7 8 10 10 9 10 7 9 14 15 15 17 19 20 22 26 25 30 29 24 22 29 27 31 25 21 25 25 22 21 18 19 18 22 21 20 23 22 21 19
5 6 5 8 5 4 2 7 5 3 4 6 9 7 7 12 13 14 16 18 18 20 22 23 24 28 30 30 23 22 28 25 25 23 23 24 25 20 15 17 16 18 20 22 23 25 27 24 23
8 9 8 5 2 3 3 5 7 5 7 7 10 10 11 12 10 13 18 20 24 24 24 23 24 29 31 29 29 28 27 31 30 31 30 27 26 26 23 18 17 17 23 24 24 26 29 27 27
7 7 9 5 5 1 2 1 7 5 6 9 10 14 13 13 15 15 17 25 25 24 29 31 29 28 31 35 36 36 28 29 31 31 32 31 28 28 28 29 21 19 22 25 26 26 29 33 32
4 4 4 1 3 3 7 7 5 5 8 6 6 10 13 12 14 13 18 22 24 29 30 33 34 34 35 37 38 40 33 32 35 36 35 37 36 34 35 33 32 26 26 27 30 30 31 35 38
3 4 1 2 1 5 4 5 8 7 11 10 10 10 11 12 12 13 16 17 24 30 33 34 35 33 35 38 40 42 39 40 37 36 34 33 40 42 40 35 35 32 29 29 33 34 33 33 35
5 7 5 6 4 4 3 5 6 9 9 7 7 9 5 10 13 15 17 21 26 31 35 35 35 33 36 39 41 40 38 37 41 36 34 36 38 39 39 36 33 31 32 34 35 32 25 27 30
5 4 6 3 1 2 4 6 8 6 8 7 10 9 10 9 12 15 15 22 26 30 36 40 34 33 36 39 37 37 37 38 34 34 34 34 34 33 34 35 34 34 35 33 29 27 22 28 35
7 5 3 2 4 5 4 3 5 3 9 9 9 10 10 7 8 10 12 19 25 30 33 36 40 42 36 35 37 35 36 33 33 28 30 34 36 37 36 36 36 36 35 32 30 37 27 37 44
3 3 0 4 5 4 2 5 8 11 8 7 9 9 8 8 10 11 11 20 24 21 28 35 35 35 37 39 39 36 33 37 37 36 40 35 39 43 43 41 39 35 35 35 37 30 28 30 34
1 2 6 4 5 4 2 6 4 9 7 8 9 10 7 8 10 10 12 14 18 23 25 30 30 34 39 37 35 37 39 36 33 34 40 43 38 33 39 41 37 39 36 37 31 26 23 26 31
Wind_Direction
140 144 98 36 53 58 278 262 257 299 309 324 319 309 302 354 174 207 122 190 169 172 169 169 159 158 162 154 143 146 149 148 149 146 147 144 145 142 135 129 124 123 120 121 117 113 110 109 108
138 129 66 71 81 40 276 253 245 232 237 285 294 356 338 313 350 354 131 177 167 170 169 168 159 161 162 161 156 161 155 144 148 146 147 145 142 137 134 129 126 124 124 125 122 118 107 110 109
150 151 85 92 110 182 233 226 249 245 210 264 279 67 230 223 270 198 260 186 160 172 172 176 166 157 155 152 149 151 152 153 154 148 147 143 142 141 137 134 130 130 131 130 128 124 116 116 112
173 25 40 88 228 251 220 227 247 293 249 171 90 276 302 353 346 17 233 199 178 167 173 171 170 168 164 154 149 149 152 152 152 151 146 146 146 143 138 133 130 130 130 130 127 126 128 120 115
63 58 67 57 251 260 248 244 189 226 282 324 100 274 254 9 318 338 280 216 194 175 175 173 174 170 166 164 153 155 156 156 149 153 150 149 145 141 136 132 131 130 132 131 129 127 127 122 118
48 98 74 231 244 259 269 216 187 203 264 295 281 272 193 14 306 308 310 222 201 192 177 180 180 183 174 163 160 153 166 163 162 157 153 148 145 139 137 136 135 131 132 137 136 131 128 123 118
122 94 197 242 274 303 252 139 204 232 242 268 134 242 282 291 325 291 282 211 206 204 184 177 179 179 186 184 173 161 171 167 154 158 154 149 148 145 145 139 131 130 133 138 136 132 129 122 119
111 97 151 240 219 270 286 169 344 188 258 87 142 246 267 279 0 120 349 174 179 196 213 207 192 172 173 170 168 163 176 175 156 158 158 156 152 148 141 135 132 131 133 134 136 134 128 124 120
142 72 209 246 178 254 163 190 174 351 272 158 155 294 145 263 159 124 142 145 166 132 173 176 172 177 175 164 163 169 168 167 155 160 163 156 151 144 139 137 137 130 132 134 139 138 133 128 124
106 135 216 209 206 242 207 193 170 103 250 196 165 138 177 198 230 181 148 135 141 161 144 153 162 163 173 171 170 168 167 175 167 164 165 158 152 144 138 135 137 136 132 133 136 139 138 138 135
172 202 217 246 240 241 256 182 149 168 263 223 188 183 176 167 122 123 128 98 124 138 168 177 165 178 175 162 161 162 178 177 167 166 166 158 153 151 147 142 141 137 134 131 137 138 140 142 141
174 236 212 278 254 251 210 128 185 189 236 331 139 156 178 153 150 154 139 120 134 133 144 148 161 169 163 150 156 166 166 169 178 174 164 163 159 157 152 146 143 140 137 132 132 136 136 147 149
208 256 207 256 290 223 143 193 214 228 193 87 121 145 161 148 132 131 155 157 152 154 151 151 148 146 155 155 162 167 166 173 174 172 166 171 166 161 156 154 151 148 145 138 137 137 142 154 157
203 228 275 273 264 197 181 147 93 221 151 129 154 188 176 152 154 140 179 168 165 167 162 158 153 155 162 160 169 170 173 174 169 189 178 176 171 164 161 160 160 156 149 144 144 149 153 161 162
225 293 314 263 228 226 119 270 232 171 161 161 188 211 189 145 157 182 179 192 188 165 177 170 164 170 165 168 167 175 178 178 181 192 184 181 175 170 167 163 164 163 154 153 149 152 156 159 167
309 68 315 296 115 248 148 273 170 159 162 191 196 212 205 165 190 187 176 179 187 178 173 180 171 160 168 169 170 182 180 179 199 200 189 185 179 177 173 174 171 169 163 163 159 166 168 171 172
354 243 231 312 214 135 161 276 68 167 183 203 187 205 212 196 197 193 181 171 185 199 190 172 177 177 164 174 176 187 185 186 194 194 192 188 185 184 181 184 179 177 177 173 175 178 181 178 176
204 230 257 251 230 171 188 257 198 187 197 222 200 192 207 207 202 189 190 180 181 193 189 185 181 185 179 176 175 180 184 186 187 192 195 192 191 191 191 193 188 185 191 188 190 191 194 195 193
148 191 304 267 207 346 270 273 275 192 211 219 221 198 201 207 193 182 193 186 182 193 196 192 171 178 185 187 168 174 177 174 175 198 193 192 198 196 197 201 196 196 207 209 205 201 206 206 205
167 234 269 291 265 162 295 277 273 184 225 217 212 221 202 163 178 181 185 185 186 185 190 192 190 183 181 187 176 173 181 176 173 195 196 193 193 201 216 208 209 213 214 222 222 215 214 218 208
198 190 215 227 6 254 299 296 294 255 233 213 214 211 202 187 181 186 186 189 192 187 185 189 192 196 196 194 182 185 184 192 185 210 207 201 202 208 209 221 224 226 227 235 232 228 224 220 210
229 193 226 232 84 251 113 279 300 269 260 224 232 213 213 199 180 180 189 192 198 197 189 188 188 194 198 196 198 192 192 198 204 215 214 214 212 209 219 235 244 243 240 238 239 237 233 227 218
225 162 196 213 195 156 218 219 266 342 300 265 234 227 218 200 187 185 188 189 192 191 194 195 191 194 193 195 200 202 199 205 215 229 228 229 230 228 229 244 252 252 246 245 245 247 240 234 233
131 172 187 116 125 235 212 172 264 219 225 254 260 228 219 202 195 194 184 176 181 189 194 197 197 197 197 201 206 211 210 213 224 232 237 238 236 238 239 248 249 254 255 250 251 253 251 245 238
126 102 286 337 240 228 204 154 239 247 244 233 248 251 216 204 188 181 174 177 175 183 193 196 200 204 206 206 208 211 212 216 222 226 234 237 242 243 247 250 246 250 261 264 259 257 255 250 247
183 158 158 197 206 245 118 226 247 228 251 257 267 262 245 193 190 192 187 185 182 183 189 196 199 201 205 210 213 216 219 221 227 231 232 237 241 243 246 251 249 256 267 269 263 256 256 264 261
200 173 204 64 349 42 235 287 314 261 280 287 272 288 251 206 193 196 188 186 186 186 190 195 197 203 206 209 212 215 218 219 223 227 231 239 244 246 247 248 251 258 266 266 260 241 264 278 269
189 159 88 13 213 233 248 237 225 206 235 255 270 261 264 213 203 195 193 193 193 195 196 196 201 205 206 209 212 214 216 220 225 230 236 242 247 250 251 250 254 261 263 265 263 248 256 256 257
128 246 225 167 153 213 222 253 219 220 214 247 270 269 248 223 220 201 200 201 200 195 194 199 201 200 203 207 209 211 214 220 224 229 235 240 252 247 248 254 256 261 264 260 261 245 246 251 246
345 208 185 199 255 238 203 237 210 234 220 216 251 275 278 222 216 212 204 192 192 197 200 203 200 203 209 207 205 210 214 218 220 221 224 234 237 236 244 247 253 254 253 251 229 238 251 256 251